[[{"header":{"parameterUnit":"m.s-1","parameterCategory":1,"la1":30.2991,"la2":30.254,"lo1":-89.0895,"lo2":-89.0444,"dy":0.0017,"dx":0.0017,"nx":28,"ny":28,"refTime":"2025-02-03T09:00:00:Z","depth":0,"parameterNumber":2,"parameterNumberName":"U-component_of_WINDS"},"data":[0,0,0,0,0,0,0,0,0,0,0,0,0,0,0,0,0,0,0,0,0,0,0,0,0,0,0,0,0,0,0,0,0,0,0,0,0,0,0,0,0,0,0,0,0,0,0,0,0,0,0,0,0,0,0,0,0,0,-0.0498,-0.0497,0,-0.0466,-0.0465,-0.0465,-0.0439,-0.0438,-0.0438,-0.0438,-0.0407,-0.0406,-0.0405,0,0,0,0,0,0,0,0,0,0,0,0,0,-0.0538,-0.0538,-0.0498,-0.0497,-0.0497,-0.0466,-0.0465,-0.0465,-0.0439,-0.0438,-0.0438,-0.0438,-0.0407,-0.0406,-0.0405,0,0,0,0,0,0,0,0,0,0,0,0,0,-0.0515,-0.0538,-0.0498,-0.048,-0.0478,-0.0466,-0.0465,-0.0465,-0.0439,-0.0438,-0.0438,-0.0438,-0.0407,-0.0406,-0.0405,-0.0408,0,0,-0.0403,-0.0402,0,0,0,0,0,0,0,0,-0.0516,-0.0514,-0.0483,-0.0481,-0.0479,-0.0456,-0.0468,-0.0446,-0.0439,-0.0454,-0.0438,-0.0437,-0.0423,-0.0421,-0.0416,-0.0407,-0.0405,-0.0403,-0.0402,-0.0402,-0.0401,0,0,0,0,0,0,0,-0.0518,-0.0515,-0.0485,-0.0483,-0.048,-0.0474,-0.0471,-0.0464,-0.0441,-0.0452,-0.045,-0.0447,-0.0422,-0.0417,-0.0415,-0.0405,-0.0403,-0.0402,-0.0401,-0.0401,-0.0398,-0.0398,0,0,0,0,0,0,-0.0522,-0.0516,-0.0486,-0.0484,-0.0497,-0.0474,-0.047,-0.0464,-0.0441,-0.0437,-0.0447,-0.0446,-0.0419,-0.0416,-0.0414,-0.0417,-0.0402,-0.0401,-0.04,-0.0397,-0.0398,-0.0398,0,0,0,0,0,0,-0.0523,-0.052,-0.0487,-0.05,-0.0495,-0.0474,-0.0467,-0.0463,-0.0458,-0.0437,-0.0433,-0.0446,-0.0418,-0.0415,-0.041,-0.0415,-0.04,-0.04,-0.0397,-0.0397,-0.0398,-0.0422,0,0,0,0,0,0,-0.0524,-0.052,-0.0521,-0.05,-0.0494,-0.0483,-0.0467,-0.0463,-0.0456,-0.0454,-0.0435,-0.0432,-0.0418,-0.0411,-0.0409,-0.0414,-0.0399,-0.0396,-0.0397,-0.0398,-0.0421,-0.0423,-0.0426,0,0,0,0,0,-0.0526,-0.0529,-0.0521,-0.0517,-0.0494,-0.0484,-0.0481,-0.0464,-0.0457,-0.0457,-0.0444,-0.0432,-0.0415,-0.0411,-0.0408,-0.0413,-0.0396,-0.0397,-0.0398,-0.0419,-0.0423,-0.0426,0,0,0,0,0,0,-0.0551,-0.0526,-0.0517,-0.0512,-0.05,-0.0479,-0.048,-0.0468,-0.0458,-0.0457,-0.0437,-0.0433,-0.043,-0.0421,-0.0417,-0.0415,-0.0404,-0.0404,-0.0421,-0.0424,-0.0427,-0.0429,-0.0398,0,0,0,0,0,-0.0556,-0.0549,-0.0527,-0.0526,-0.052,-0.0501,-0.0496,-0.0484,-0.0471,-0.0466,-0.0452,-0.0441,-0.0433,-0.0428,-0.0419,-0.0419,-0.0415,-0.0421,-0.0423,-0.0425,-0.0426,-0.0426,-0.0429,-0.0401,-0.0401,-0.0401,0,0,-0.0567,-0.0552,-0.0548,-0.0531,-0.052,-0.0514,-0.0497,-0.0491,-0.0486,-0.0465,-0.0459,-0.0449,-0.0435,-0.0433,-0.0431,-0.0425,-0.0433,-0.0427,-0.0429,-0.0428,-0.0428,-0.043,-0.0433,-0.0402,-0.0402,-0.0402,0,0,-0.0582,-0.057,-0.0568,-0.0558,-0.0541,-0.0529,-0.0528,-0.0509,-0.0501,-0.0495,-0.048,-0.0474,-0.046,-0.0451,-0.0445,-0.0458,-0.0447,-0.0456,-0.0469,-0.047,-0.0472,-0.0474,-0.0479,-0.0481,-0.0456,-0.0456,-0.0456,0,-0.0598,-0.0587,-0.0568,-0.0563,-0.0557,-0.0537,-0.0535,-0.0526,-0.0508,-0.0504,-0.0497,-0.048,-0.0469,-0.0465,-0.0468,-0.0463,-0.0463,-0.0458,-0.0473,-0.0474,-0.0476,-0.0481,-0.0483,-0.0458,-0.0458,-0.0457,-0.0457,0,-0.0607,-0.06,-0.06,-0.0583,-0.0576,-0.0573,-0.0555,-0.055,-0.0539,-0.0527,-0.0522,-0.0508,-0.0497,-0.0495,-0.0484,-0.0489,-0.0486,-0.0476,-0.0465,-0.048,-0.0485,-0.0487,-0.046,-0.0459,-0.0459,-0.0458,0,0,-0.0638,-0.0611,-0.0611,-0.0604,-0.0585,-0.0579,-0.0576,-0.0564,-0.0561,-0.0549,-0.0546,-0.0536,-0.0527,-0.0519,-0.0507,-0.0508,-0.052,-0.0498,-0.0497,-0.0504,-0.0526,-0.0535,-0.0537,-0.0513,-0.0513,-0.0513,-0.0528,0,-0.0651,-0.0643,-0.0626,-0.0624,-0.0617,-0.0599,-0.0596,-0.0584,-0.0573,-0.0567,-0.0555,-0.0548,-0.0536,-0.0532,-0.0531,-0.0519,-0.0525,-0.0518,-0.0511,-0.0511,-0.0516,-0.0539,-0.0548,-0.0562,-0.053,-0.053,-0.053,0,-0.0666,-0.0656,-0.0652,-0.0634,-0.0631,-0.0628,-0.0617,-0.0611,-0.0598,-0.059,-0.0582,-0.0569,-0.0565,-0.0554,-0.0549,-0.0544,-0.054,-0.0534,-0.0534,-0.0534,-0.0522,-0.054,-0.0566,-0.0569,-0.0532,-0.0532,-0.0532,0,-0.069,-0.0675,-0.0671,-0.0665,-0.0644,-0.0643,-0.0634,-0.062,-0.0615,-0.0605,-0.0601,-0.0591,-0.0586,-0.0579,-0.0564,-0.0558,-0.0561,-0.0549,-0.0555,-0.0556,-0.0558,-0.0558,-0.0585,-0.0554,-0.0554,-0.0554,-0.0554,0,-0.0708,-0.0706,-0.0682,-0.068,-0.0678,-0.0659,-0.0659,-0.0648,-0.0636,-0.0632,-0.0616,-0.0612,-0.0592,-0.0587,-0.0575,-0.0573,-0.0571,-0.0565,-0.0562,-0.0567,-0.0568,-0.0565,-0.0564,-0.0554,-0.0554,-0.0554,-0.0554,0,-0.0735,-0.0718,-0.0713,-0.0693,-0.0688,-0.0688,-0.0671,-0.0669,-0.0657,-0.0652,-0.065,-0.0632,-0.0625,-0.0609,-0.0598,-0.059,-0.0591,-0.0585,-0.0596,-0.0594,-0.0602,-0.0602,-0.0628,-0.0631,-0.0598,-0.0598,-0.0599,0,-0.0747,-0.0746,-0.0726,-0.0722,-0.0714,-0.0707,-0.0701,-0.0683,-0.0678,-0.0663,-0.0663,-0.0655,-0.0647,-0.0637,-0.0623,-0.0615,-0.0609,-0.0619,-0.0608,-0.0613,-0.061,-0.0611,-0.0611,-0.0622,-0.0622,-0.0623,-0.0623,0,-0.0772,-0.0764,-0.0755,-0.0745,-0.0738,-0.0729,-0.0719,-0.0717,-0.0697,-0.0692,-0.0684,-0.0679,-0.0667,-0.066,-0.0649,-0.0641,-0.0629,-0.0626,-0.0628,-0.0633,-0.064,-0.0637,-0.0603,-0.0626,-0.0626,-0.0625,-0.0625,-0.0625,-0.0792,-0.0791,-0.0777,-0.0768,-0.0759,-0.075,-0.0747,-0.0735,-0.0728,-0.0717,-0.0707,-0.0701,-0.0689,-0.0673,-0.0666,-0.0661,-0.0655,-0.0657,-0.0657,-0.0658,-0.0661,-0.064,-0.0659,-0.0659,-0.0659,-0.0659,-0.0659,0,-0.0817,-0.0807,-0.0799,-0.0786,-0.078,-0.0768,-0.0757,-0.0753,-0.0748,-0.0737,-0.073,-0.0722,-0.0714,-0.07,-0.0691,-0.0691,-0.0685,-0.0689,-0.0689,-0.0688,-0.0666,-0.0667,-0.0694,-0.0694,-0.0694,-0.0694,-0.0694,-0.0694,-0.0829,-0.0826,-0.0816,-0.0808,-0.0798,-0.0792,-0.0786,-0.0779,-0.077,-0.0762,-0.0755,-0.0746,-0.0734,-0.0724,-0.0717,-0.0713,-0.0712,-0.0718,-0.0712,-0.0693,-0.0689,-0.0686,-0.0686,-0.0717,-0.0717,-0.0734,-0.0734,-0.0735]},{"header":{"parameterUnit":"m.s-1","parameterCategory":1,"la1":30.2991,"la2":30.254,"lo1":-89.0895,"lo2":-89.0444,"dy":0.0017,"dx":0.0017,"nx":28,"ny":28,"refTime":"2025-02-03T09:00:00:Z","depth":0,"parameterNumber":3,"parameterNumberName":"V-component_of_WINDS"},"data":[0,0,0,0,0,0,0,0,0,0,0,0,0,0,0,0,0,0,0,0,0,0,0,0,0,0,0,0,0,0,0,0,0,0,0,0,0,0,0,0,0,0,0,0,0,0,0,0,0,0,0,0,0,0,0,0,0,0,1.018,1.0181,0,1.0214,1.0215,1.0215,1.0224,1.0224,1.0224,1.0223,1.0258,1.0259,1.026,0,0,0,0,0,0,0,0,0,0,0,0,0,1.0122,1.0123,1.018,1.0181,1.0181,1.0214,1.0215,1.0215,1.0224,1.0224,1.0224,1.0223,1.0257,1.0259,1.026,0,0,0,0,0,0,0,0,0,0,0,0,0,1.0151,1.0124,1.018,1.0189,1.0191,1.0214,1.0215,1.0215,1.0224,1.0224,1.0223,1.0223,1.0257,1.0258,1.026,1.0276,0,0,1.0265,1.0266,0,0,0,0,0,0,0,0,1.0149,1.0153,1.0188,1.0189,1.019,1.0215,1.0207,1.0236,1.0224,1.0211,1.0223,1.0223,1.0244,1.0246,1.0253,1.0278,1.0279,1.0265,1.0266,1.0267,1.0267,0,0,0,0,0,0,0,1.0147,1.0152,1.0194,1.0188,1.019,1.0192,1.0196,1.0212,1.0229,1.0212,1.0213,1.0217,1.0244,1.0252,1.0254,1.028,1.0265,1.0267,1.0268,1.0268,1.0319,1.032,0,0,0,0,0,0,1.0144,1.015,1.0193,1.0195,1.0169,1.0193,1.0197,1.0207,1.0229,1.0232,1.0217,1.0217,1.0249,1.0252,1.0255,1.0276,1.0267,1.0269,1.0269,1.0319,1.0319,1.032,0,0,0,0,0,0,1.0143,1.0148,1.0191,1.0173,1.0178,1.0194,1.0205,1.0208,1.0215,1.0232,1.0235,1.0222,1.0249,1.0253,1.0271,1.0277,1.0269,1.0271,1.0318,1.0319,1.0319,1.0316,0,0,0,0,0,0,1.0141,1.0147,1.0154,1.0173,1.0179,1.0206,1.0206,1.0209,1.0218,1.0219,1.0237,1.024,1.0249,1.0269,1.0273,1.0279,1.0272,1.0318,1.0319,1.0319,1.0316,1.0317,1.0317,0,0,0,0,0,1.0139,1.0151,1.0154,1.0159,1.0188,1.0207,1.0211,1.0221,1.0219,1.0225,1.0236,1.024,1.0276,1.027,1.0275,1.0282,1.0318,1.0318,1.0319,1.0316,1.0317,1.0317,0,0,0,0,0,0,1.0133,1.0154,1.0157,1.0176,1.019,1.0208,1.0217,1.0221,1.0235,1.0235,1.0247,1.0251,1.0268,1.0277,1.027,1.0299,1.0297,1.0298,1.0292,1.0293,1.0294,1.0292,1.0273,0,0,0,0,0,1.0134,1.0147,1.0165,1.018,1.0187,1.0201,1.0209,1.0216,1.023,1.0236,1.0248,1.0261,1.0276,1.0285,1.0299,1.0317,1.0321,1.0324,1.0325,1.0326,1.0327,1.0337,1.0338,1.0322,1.0322,1.0322,0,0,1.0136,1.0149,1.0157,1.018,1.0191,1.0205,1.0206,1.022,1.0231,1.0238,1.0256,1.0265,1.0281,1.0299,1.0307,1.0307,1.0332,1.0327,1.0327,1.0328,1.0338,1.0339,1.0341,1.0323,1.0323,1.0323,0,0,1.0146,1.0158,1.0172,1.0183,1.02,1.0209,1.0212,1.023,1.0236,1.0254,1.026,1.0272,1.0297,1.0308,1.0317,1.0331,1.0334,1.0335,1.0339,1.0348,1.0349,1.0351,1.0356,1.0357,1.0336,1.0336,1.0336,0,1.0147,1.0168,1.0178,1.0193,1.0202,1.021,1.0224,1.0234,1.0254,1.0261,1.026,1.029,1.0301,1.0322,1.0325,1.0332,1.0336,1.0333,1.0348,1.035,1.0351,1.0356,1.0358,1.0336,1.0336,1.0336,1.0336,0,1.0168,1.0182,1.0192,1.0211,1.0222,1.0236,1.0248,1.0257,1.0262,1.0271,1.0289,1.0303,1.032,1.0325,1.033,1.0346,1.0345,1.0346,1.0344,1.0352,1.0357,1.0359,1.0336,1.0336,1.0336,1.0336,0,0,1.0176,1.0201,1.0204,1.0213,1.0232,1.0243,1.0257,1.0274,1.0282,1.0295,1.0307,1.0327,1.0328,1.0338,1.0345,1.0353,1.0363,1.0353,1.0353,1.0354,1.0381,1.038,1.0382,1.0366,1.0366,1.0366,1.038,0,1.019,1.0215,1.0225,1.0246,1.0259,1.0266,1.0278,1.0291,1.0299,1.0312,1.0321,1.0335,1.0335,1.0341,1.035,1.036,1.0369,1.0359,1.0377,1.0377,1.0373,1.0385,1.0384,1.0397,1.0382,1.0382,1.0382,0,1.0209,1.0223,1.0245,1.0262,1.0268,1.0279,1.0294,1.0306,1.032,1.0326,1.0337,1.0342,1.0357,1.0354,1.0374,1.0368,1.0375,1.0381,1.0382,1.0384,1.038,1.0387,1.0401,1.0402,1.0385,1.0385,1.0385,0,1.0213,1.0237,1.0253,1.0261,1.0281,1.0288,1.0297,1.0311,1.032,1.0333,1.0339,1.0354,1.0362,1.0374,1.0383,1.038,1.0402,1.04,1.0407,1.0407,1.0412,1.0411,1.0426,1.0416,1.0416,1.0416,1.0416,0,1.0227,1.024,1.0255,1.0266,1.0281,1.0291,1.0305,1.0314,1.0327,1.0338,1.0345,1.0356,1.0368,1.038,1.0387,1.0403,1.0406,1.0411,1.0413,1.0411,1.041,1.0416,1.0415,1.0417,1.0417,1.0417,1.0417,0,1.0234,1.0245,1.0263,1.028,1.0285,1.0295,1.031,1.032,1.0328,1.0343,1.0347,1.036,1.0375,1.0385,1.0404,1.0409,1.0426,1.0428,1.0421,1.0422,1.0428,1.0428,1.0448,1.0451,1.0439,1.0439,1.0439,0,1.0242,1.0253,1.0271,1.0279,1.0288,1.0301,1.0311,1.0321,1.033,1.0347,1.0354,1.037,1.0382,1.0405,1.0417,1.0431,1.0433,1.0439,1.0435,1.0432,1.0433,1.0432,1.0433,1.044,1.044,1.044,1.044,0,1.0256,1.0261,1.0274,1.0289,1.03,1.0312,1.0324,1.0331,1.0343,1.0353,1.0368,1.0378,1.0397,1.0412,1.0427,1.0436,1.044,1.0441,1.0443,1.0441,1.0437,1.0439,1.0423,1.0441,1.0441,1.044,1.044,1.044,1.0264,1.0274,1.0288,1.0302,1.0312,1.0324,1.0334,1.0343,1.0356,1.0373,1.0378,1.0393,1.0406,1.0427,1.0436,1.0448,1.0448,1.0451,1.0452,1.0453,1.0453,1.0435,1.0451,1.0451,1.0451,1.0451,1.0451,0,1.0278,1.0287,1.03,1.0317,1.0329,1.0331,1.0345,1.0354,1.0368,1.038,1.0392,1.0409,1.0423,1.0435,1.045,1.0457,1.0459,1.0461,1.046,1.0462,1.0452,1.0449,1.0459,1.0459,1.0459,1.0459,1.0459,1.0459,1.0287,1.0303,1.0309,1.033,1.0339,1.0355,1.0362,1.0372,1.0382,1.0401,1.0412,1.042,1.0432,1.0448,1.046,1.0464,1.0469,1.047,1.0473,1.0464,1.0463,1.0462,1.0459,1.0471,1.0471,1.0482,1.0482,1.0482]}]]